This is the latest recevied weather packets stored in our database for station/object LRBV. If no packets are shown the sender has not sent any weather packets the latest 1 day(s).
| Time | Temp. | Humidity | Pressure | Rain* | Wind** | Luminosity | Snow |
|---|---|---|---|---|---|---|---|
| 1778118530 | 8.89° C | 87% | 1015 hPa | - | - | - | - |
| 1778117630 | 8.89° C | 87% | 1015 hPa | - | - | - | - |
| 1778116730 | 7.78° C | 82% | 1015 hPa | - | - | - | - |
| 1778115831 | 7.78° C | 82% | 1015 hPa | - | - | - | - |
| 1778114930 | 8.89° C | 82% | 1015 hPa | - | - | - | - |
| 1778114031 | 8.89° C | 82% | 1015 hPa | - | - | - | - |
| 1778107727 | 12.78° C | 67% | 1015 hPa | - | - | - | - |
| 1778105930 | 13.89° C | 67% | 1015 hPa | - | - | - | - |
| 1778105030 | 13.89° C | 67% | 1015 hPa | - | - | - | - |
| 1778103231 | 15° C | 59% | 1015 hPa | - | - | - | - |
| 1778101430 | 13.89° C | 67% | 1014 hPa | - | - | - | - |
| 1778097830 | 16.11° C | 59% | 1014 hPa | - | - | - | - |
| 1778096947 | 17.22° C | 56% | 1014 hPa | - | - | - | - |
| 1778096054 | 17.22° C | 56% | 1014 hPa | - | - | - | - |
| 1778094231 | 17.22° C | 56% | 1014 hPa | - | - | - | - |
| 1778093333 | 17.78° C | 52% | 1014 hPa | - | - | - | - |
| 1778091531 | 17.78° C | 52% | 1013 hPa | - | - | - | - |
| 1778089731 | 17.78° C | 52% | 1013 hPa | - | - | - | - |
| 1778087931 | 18.89° C | 46% | 1013 hPa | - | - | - | - |
| 1778086131 | 20° C | 40% | 1013 hPa | - | - | - | - |
| 1778084331 | 20° C | 38% | 1013 hPa | - | - | - | - |
| 1778082531 | 20° C | 40% | 1013 hPa | - | - | - | - |
| 1778078931 | 22.22° C | 36% | 1013 hPa | - | - | - | - |
| 1778074431 | 22.78° C | 36% | 1013 hPa | - | - | - | - |
| 1778069931 | 26.11° C | 24% | 1013 hPa | - | - | - | - |
* Rain since midnight (hover to see other rain measurements)
** Current wind speed in m/s (hover to see current wind gust speed)